FW8281 Weather Reports


Display with metric or nautical units.
time (UTC)temp
F
wind
direction
speed
MPH
gust
MPH
rain 1hr
in
rain 24hr
in
rain mn
in
humidity
%
barometer
mb
20260505024827 69 229 6.0 12.0 0.00 0.00 0.00 52 1007.7
20260505024147 69 222 5.0 13.0 0.00 0.00 0.00 52 1007.7
20260505023718 69 215 7.0 10.0 0.00 0.00 0.00 51 1007.4
20260505022827 69 211 6.0 10.0 0.00 0.00 0.00 51 1007.4
20260505022147 69 233 4.0 9.0 0.00 0.00 0.00 51 1007.4
20260505021720 69 230 5.0 8.0 0.00 0.00 0.00 50 1007.0
20260505020827 69 232 4.0 12.0 0.00 0.00 0.00 50 1007.0
20260505020147 70 237 6.0 12.0 0.00 0.00 0.00 49 1007.0
20260505015507 70 225 4.0 10.0 0.00 0.00 0.00 49 1006.7
20260505015038 70 220 5.0 11.0 0.00 0.00 0.00 49 1006.7
20260505014147 70 219 5.0 10.0 0.00 0.00 0.00 48 1006.3
20260505013507 71 213 6.0 10.0 0.00 0.00 0.00 47 1006.7
20260505012827 71 211 6.0 9.0 0.00 0.00 0.00 46 1006.3
20260505012147 72 227 5.0 13.0 0.00 0.00 0.00 46 1006.3
20260505011507 72 224 7.0 14.0 0.00 0.00 0.00 45 1006.3
20260505011037 72 236 6.0 14.0 0.00 0.00 0.00 45 1006.3
20260505010147 72 227 5.0 18.0 0.00 0.00 0.00 45 1006.3
20260505005507 73 229 6.0 12.0 0.00 0.00 0.00 44 1006.3
20260505005252 73 231 7.0 15.0 0.00 0.00 0.00 44 1006.3
20260505004147 74 224 7.0 15.0 0.00 0.00 0.00 43 1006.3
20260505003507 74 227 8.0 14.0 0.00 0.00 0.00 42 1006.3
20260505002827 75 222 8.0 14.0 0.00 0.00 0.00 41 1006.3
20260505002147 75 235 8.0 15.0 0.00 0.00 0.00 41 1006.3
20260505001716 75 237 5.0 19.0 0.00 0.00 0.00 41 1006.3
20260505001250 76 230 7.0 20.0 0.00 0.00 0.00 40 1006.0
20260505000147 76 216 13.0 20.0 0.00 0.00 0.00 39 1006.0
20260504235507 76 226 13.0 20.0 0.00 0.00 0.00 38 1006.0
20260504234827 77 240 8.0 21.0 0.00 0.00 0.00 39 1006.0
20260504234147 77 234 9.0 21.0 0.00 0.00 0.00 38 1006.0
20260504233507 77 248 7.0 19.0 0.00 0.00 0.00 37 1006.0
20260504233036 77 247 6.0 21.0 0.00 0.00 0.00 36 1006.3
20260504232147 77 221 11.0 21.0 0.00 0.00 0.00 37 1006.3
20260504231507 78 216 12.0 20.0 0.00 0.00 0.00 36 1006.3
20260504230827 78 251 9.0 20.0 0.00 0.00 0.00 36 1006.3
20260504230147 78 234 11.0 20.0 0.00 0.00 0.00 36 1006.3
20260504225507 78 221 12.0 18.0 0.00 0.00 0.00 36 1006.3
20260504225040 79 258 5.0 22.0 0.00 0.00 0.00 35 1006.3
20260504224147 78 236 10.0 22.0 0.00 0.00 0.00 36 1006.3
20260504223507 78 236 11.0 20.0 0.00 0.00 0.00 35 1006.3
20260504222827 78 231 10.0 20.0 0.00 0.00 0.00 36 1006.3
20260504222147 79 229 12.0 23.0 0.00 0.00 0.00 35 1006.3
20260504221507 79 230 8.0 17.0 0.00 0.00 0.00 36 1006.3
20260504220827 79 247 6.0 21.0 0.00 0.00 0.00 35 1006.3
20260504220359 79 221 11.0 20.0 0.00 0.00 0.00 36 1006.3
20260504215507 79 239 12.0 23.0 0.00 0.00 0.00 35 1006.7
20260504215041 79 244 8.0 23.0 0.00 0.00 0.00 35 1006.7
20260504214147 79 258 7.0 24.0 0.00 0.00 0.00 36 1006.7
20260504213507 80 243 7.0 24.0 0.00 0.00 0.00 36 1006.7
20260504212827 80 231 9.0 22.0 0.00 0.00 0.00 34 1006.7
20260504212147 79 232 12.0 22.0 0.00 0.00 0.00 34 1006.7
20260504211507 79 255 8.0 23.0 0.00 0.00 0.00 34 1006.7
20260504210827 80 244 11.0 23.0 0.00 0.00 0.00 34 1006.7
20260504210147 80 246 8.0 19.0 0.00 0.00 0.00 34 1007.0
20260504205507 80 254 10.0 24.0 0.00 0.00 0.00 34 1007.0
20260504204827 79 229 15.0 24.0 0.00 0.00 0.00 34 1007.0
20260504204146 79 225 10.0 22.0 0.00 0.00 0.00 34 1007.0
20260504203507 79 249 10.0 20.0 0.00 0.00 0.00 35 1007.0
20260504202826 79 243 9.0 24.0 0.00 0.00 0.00 34 1007.4
20260504202612 80 259 13.0 24.0 0.00 0.00 0.00 34 1007.4
20260504201506 80 262 8.0 22.0 0.00 0.00 0.00 34 1007.4
20260504200826 80 223 14.0 22.0 0.00 0.00 0.00 34 1007.4
20260504200146 80 268 7.0 16.0 0.00 0.00 0.00 34 1007.4
20260504195506 80 251 6.0 26.0 0.00 0.00 0.00 35 1007.7
20260504195250 79 240 14.0 25.0 0.00 0.00 0.00 34 1007.7
20260504194146 79 243 10.0 22.0 0.00 0.00 0.00 34 1007.7
20260504193718 79 229 13.0 25.0 0.00 0.00 0.00 34 1007.7
20260504192826 79 213 13.0 25.0 0.00 0.00 0.00 34 1007.7
20260504192146 79 231 6.0 22.0 0.00 0.00 0.00 34 1008.1
20260504191506 79 244 10.0 20.0 0.00 0.00 0.00 35 1008.1
20260504190826 78 252 9.0 23.0 0.00 0.00 0.00 34 1008.1
20260504190146 78 259 11.0 20.0 0.00 0.00 0.00 34 1008.1
20260504185506 78 220 13.0 22.0 0.00 0.00 0.00 34 1008.1
20260504184826 78 232 8.0 26.0 0.00 0.00 0.00 35 1008.1
20260504184146 77 244 8.0 25.0 0.00 0.00 0.00 34 1008.1
20260504183506 78 258 9.0 26.0 0.00 0.00 0.00 34 1008.4
20260504182826 77 243 10.0 26.0 0.00 0.00 0.00 36 1008.4
20260504182608 78 234 9.0 21.0 0.00 0.00 0.00 36 1008.4
20260504181506 77 252 9.0 22.0 0.00 0.00 0.00 35 1008.4
20260504181036 77 245 10.0 24.0 0.00 0.00 0.00 35 1008.4
20260504180146 77 245 9.0 22.0 0.00 0.00 0.00 36 1008.8
20260504175718 77 233 13.0 30.0 0.00 0.00 0.00 36 1008.4
20260504174826 77 259 8.0 23.0 0.00 0.00 0.00 36 1008.4
20260504174146 76 227 11.0 22.0 0.00 0.00 0.00 36 1008.8
20260504173506 76 226 14.0 22.0 0.00 0.00 0.00 36 1008.8
20260504173035 76 244 6.0 24.0 0.00 0.00 0.00 37 1008.8
20260504172146 76 232 12.0 24.0 0.00 0.00 0.00 37 1008.8
20260504171716 75 236 13.0 24.0 0.00 0.00 0.00 38 1008.8
20260504171250 75 252 9.0 23.0 0.00 0.00 0.00 37 1008.8
20260504170146 75 234 10.0 22.0 0.00 0.00 0.00 37 1009.1
20260504160358 73 247 8.0 20.0 0.00 0.00 0.00 39 1009.8
20260504150146 70 248 7.0 19.0 0.00 0.00 0.00 42 1010.2
20260504140826 68 252 6.0 17.0 0.00 0.00 0.00 43 1010.5
20260504140146 67 250 6.0 14.0 0.00 0.00 0.00 46 1010.5
20260504130146 64 236 7.0 13.0 0.00 0.00 0.00 51 1010.5
20260504120146 61 277 3.0 10.0 0.00 0.00 0.00 56 1010.5
20260504110146 61 252 3.0 9.0 0.00 0.00 0.00 57 1009.8
20260504100358 61 249 3.0 9.0 0.00 0.00 0.00 59 1010.2
20260504081506 63 267 3.0 12.0 0.00 0.00 0.00 56 1010.5
20260504081251 63 254 4.0 12.0 0.00 0.00 0.00 56 1010.5
20260504080146 63 257 3.0 12.0 0.00 0.00 0.00 56 1010.5
20260504070146 64 244 3.0 10.0 0.00 0.00 0.00 56 1010.9
20260504050146 64 232 4.0 10.0 0.00 0.00 0.00 52 1011.9
20260504045506 64 229 4.0 7.0 0.00 0.00 0.00 52 1011.9
20260504044826 64 232 4.0 10.0 0.00 0.00 0.00 52 1012.3
20260504044358 64 225 6.0 10.0 0.00 0.00 0.00 51 1012.3
20260504043506 65 233 6.0 9.0 0.00 0.00 0.00 51 1012.3
20260504042826 64 230 5.0 9.0 0.00 0.00 0.00 51 1012.3
20260504042613 64 232 5.0 9.0 0.00 0.00 0.00 51 1012.6
20260504041506 65 230 5.0 9.0 0.00 0.00 0.00 51 1012.6
20260504040826 65 228 5.0 11.0 0.00 0.00 0.00 50 1012.6
20260504040357 65 226 7.0 11.0 0.00 0.00 0.00 50 1012.6
20260504035717 65 233 6.0 10.0 0.00 0.00 0.00 50 1012.6
20260504035038 65 231 5.0 10.0 0.00 0.00 0.00 50 1012.6
20260504034146 64 233 4.0 8.0 0.00 0.00 0.00 50 1012.6
20260504033719 64 232 4.0 9.0 0.00 0.00 0.00 51 1012.6
20260504033040 64 234 4.0 6.0 0.00 0.00 0.00 51 1012.6
20260504032355 64 264 1.0 3.0 0.00 0.00 0.00 52 1013.0
20260504031506 64 224 1.0 4.0 0.00 0.00 0.00 51 1013.0
20260504030826 65 226 2.0 4.0 0.00 0.00 0.00 50 1013.0
20260504030357 65 243 2.0 5.0 0.00 0.00 0.00 49 1013.0
20260504025506 65 239 2.0 5.0 0.00 0.00 0.00 48 1013.0